Wetbulb
61.90 57.41 54.33 53.52 45.01 43.27 37.38 40.59 44.80 45.50 51.75 57.05 61.19 60.69 61.19 62.31 62.73 58.04 71.43 72.94 76.06 76.51 76.85 77.49 78.03 77.84 77.27 76.58 76.28 76.22 76.42 76.59 77.00 77.01 76.86 76.59 76.71 76.69 76.61 76.87 77.09 76.97 75.65 74.46 74.13 74.17 74.70 75.26 75.24
60.60 57.02 52.54 46.63 41.15 37.26 37.62 41.68 43.61 45.32 47.76 59.59 60.07 59.78 61.59 61.43 65.76 67.16 69.92 76.04 76.42 76.73 76.60 76.63 77.94 77.61 76.99 76.53 76.17 76.14 76.24 76.57 76.62 76.87 76.71 76.76 76.66 76.69 76.94 76.99 76.94 76.63 75.21 74.54 74.12 74.07 74.03 74.82 75.02
55.18 55.50 48.02 42.11 37.42 35.39 36.94 43.66 44.43 46.85 48.34 48.51 55.22 60.01 60.35 61.30 66.59 66.80 72.58 76.54 76.58 76.34 76.39 76.63 77.83 77.60 76.49 76.23 75.78 76.21 76.19 76.19 76.54 76.48 76.46 76.46 76.56 76.85 76.90 76.91 76.82 76.28 74.96 74.52 74.29 74.18 74.21 74.29 74.35
51.92 48.51 45.20 40.46 37.41 40.88 41.38 43.49 44.47 44.94 47.79 49.20 55.75 55.57 61.01 64.52 66.53 69.40 75.85 76.26 75.61 75.46 76.00 77.27 77.68 77.35 76.80 76.21 75.78 76.04 75.94 76.19 76.42 76.30 76.15 76.40 76.53 76.75 76.67 76.73 76.66 76.59 75.73 75.14 74.84 74.54 74.42 73.73 73.56
46.76 43.27 38.45 36.40 36.62 40.77 42.24 44.06 44.40 44.10 44.80 50.80 53.24 56.01 59.55 66.86 71.82 74.01 75.10 75.30 74.39 74.89 76.34 76.83 77.52 77.22 77.08 76.36 76.01 76.07 76.12 75.79 76.12 76.32 76.10 76.10 76.37 76.44 76.74 76.92 76.93 76.94 76.21 75.27 74.59 74.35 73.98 73.15 72.77
42.09 41.27 35.95 33.76 36.03 42.01 42.14 43.06 44.28 43.80 44.78 47.08 55.47 55.44 56.73 60.40 70.71 73.05 73.94 73.66 75.13 75.01 76.11 76.52 77.40 77.27 76.92 76.68 76.30 76.20 76.00 75.93 75.94 76.24 76.00 76.05 76.07 76.31 76.39 76.67 76.87 76.71 76.36 75.49 74.76 74.49 73.69 72.97 72.11
40.25 36.85 33.43 33.46 36.52 38.71 42.92 43.78 43.43 42.88 44.00 45.80 48.72 50.18 51.83 55.47 66.28 73.66 73.49 74.45 74.67 74.90 74.87 75.57 76.29 76.61 76.97 76.59 76.23 76.25 75.89 75.87 75.65 75.65 75.90 75.79 75.79 75.95 76.15 76.36 76.51 76.34 75.82 75.35 74.88 74.01 73.32 72.45 72.37
40.24 37.60 33.68 33.52 36.85 36.96 43.29 44.61 42.94 43.74 44.92 48.62 49.08 45.09 44.37 49.77 55.57 72.20 73.93 73.68 72.04 73.78 74.32 75.02 75.85 75.92 75.48 75.33 76.41 76.20 76.02 75.86 75.74 75.79 75.86 75.72 75.82 75.90 76.10 75.50 75.87 75.92 75.44 74.92 74.48 73.76 73.02 72.30 72.05
40.36 35.07 31.63 34.51 39.05 41.05 43.11 43.34 45.87 47.70 46.46 47.47 48.39 48.00 50.20 52.56 54.67 68.40 70.10 72.11 72.11 72.89 72.57 73.89 74.98 75.31 75.19 74.94 75.46 75.97 75.90 75.86 75.75 75.57 75.77 74.98 73.89 74.39 74.86 75.19 75.57 75.54 75.29 74.90 74.23 73.34 72.57 72.03 72.00
39.58 35.34 37.04 40.30 40.91 39.05 42.89 42.37 45.63 45.46 45.19 45.53 47.49 49.93 51.26 52.34 51.17 50.92 62.93 69.09 70.85 71.69 71.88 72.56 74.02 74.61 74.62 75.26 74.43 74.39 74.49 74.34 74.25 73.98 73.87 73.96 73.39 73.97 74.71 74.78 75.85 75.66 75.31 74.77 74.05 73.26 72.57 71.95 66.13
39.95 37.89 41.16 42.94 43.35 42.57 42.21 42.30 44.99 43.90 43.89 45.78 45.93 48.43 49.99 50.74 50.37 48.67 49.55 58.10 71.05 72.27 72.58 72.84 73.10 73.74 73.43 73.66 74.20 74.12 74.02 74.24 73.85 73.66 73.67 72.65 72.21 72.80 73.93 72.15 74.04 72.56 74.27 70.99 71.61 70.18 68.93 66.73 64.91
40.99 43.13 42.87 43.96 45.30 43.51 43.25 44.65 44.11 44.18 46.08 48.54 48.58 49.28 49.21 49.30 49.34 49.74 49.90 49.40 52.19 67.17 72.85 72.58 72.66 72.83 72.64 72.39 73.23 72.81 72.75 73.17 73.34 72.72 72.44 71.49 70.96 71.43 72.38 71.72 72.19 70.66 70.52 68.80 67.88 66.86 66.47 65.64 64.71
40.01 42.39 44.49 45.20 44.61 44.35 44.85 43.98 43.38 43.25 47.65 48.65 48.80 49.32 48.42 48.34 48.50 49.08 50.11 50.47 49.34 51.65 63.50 72.41 72.94 72.61 72.73 72.04 73.15 72.44 72.33 72.50 72.15 71.88 72.14 71.35 70.27 70.45 70.73 70.70 71.18 70.30 68.94 67.95 66.28 65.32 64.23 63.46 63.10
42.58 42.97 43.99 44.58 44.22 43.40 42.08 42.82 43.30 45.28 46.15 46.76 47.07 46.92 47.14 47.58 48.10 48.14 48.79 49.11 49.38 50.68 65.48 71.68 72.16 72.16 71.95 72.35 72.40 72.43 72.25 72.88 72.27 71.68 71.82 71.39 69.70 69.55 69.19 69.84 70.05 69.73 68.76 68.13 65.87 64.24 63.45 62.60 63.36
43.03 41.69 43.21 43.36 42.67 40.99 41.88 41.37 42.18 44.46 45.69 45.62 46.08 46.25 47.11 47.65 48.19 48.11 48.73 48.37 48.66 49.34 51.45 69.72 71.83 71.77 70.57 71.81 72.06 72.22 72.45 73.09 72.56 71.71 71.84 71.74 69.41 68.26 68.66 69.66 69.48 69.55 68.71 67.36 65.75 64.34 63.94 63.72 64.31
41.26 37.99 35.34 41.88 42.06 42.87 42.48 35.90 42.16 44.54 44.29 44.50 45.57 45.93 46.65 46.40 46.83 47.54 48.97 49.29 49.84 48.82 50.37 54.27 72.09 72.02 70.63 70.78 71.73 72.13 72.21 72.50 72.57 72.03 71.67 71.47 70.33 68.79 68.27 69.40 69.27 69.51 68.04 67.52 65.61 64.05 63.81 63.98 63.54
36.61 33.00 34.28 37.79 40.81 40.59 39.20 37.23 42.48 44.12 43.72 43.40 43.81 44.14 45.20 45.41 46.39 47.35 47.98 48.70 50.05 50.40 49.40 51.63 63.60 71.24 70.86 70.51 71.47 71.15 71.67 72.02 71.97 71.77 71.61 71.35 70.52 69.63 68.58 69.16 69.42 69.02 68.08 67.32 66.36 63.96 63.70 63.19 61.48
33.36 31.55 33.69 34.45 39.10 39.67 38.41 38.11 40.20 43.99 43.17 43.18 43.68 44.25 44.92 46.60 48.89 50.10 50.53 51.33 48.92 49.67 49.34 50.57 53.26 67.83 71.26 70.99 70.38 68.37 67.86 68.15 68.31 69.79 71.34 72.02 71.75 70.26 68.99 68.69 69.37 68.94 67.79 66.53 65.71 63.89 62.06 62.01 61.12
38.41 34.74 34.59 37.36 41.05 38.16 37.04 38.18 38.41 42.62 42.39 42.41 42.12 45.75 46.63 47.26 50.76 52.05 52.56 51.86 49.46 49.20 49.74 49.31 51.63 54.85 68.28 68.60 68.40 68.17 68.04 68.33 69.19 69.39 70.53 70.63 72.05 71.44 69.40 68.76 68.38 68.80 68.57 67.34 65.59 63.61 62.71 61.04 62.89
38.80 35.32 34.54 38.24 41.44 39.16 38.12 38.55 39.96 41.75 42.06 41.74 44.53 46.03 46.36 47.35 49.41 51.68 52.40 50.28 49.90 49.41 49.35 50.09 51.50 53.52 65.55 68.61 69.05 67.86 69.17 69.02 69.94 70.30 70.11 69.81 71.02 71.19 70.55 69.51 68.56 67.15 68.13 67.07 63.90 62.50 60.99 60.67 65.24
36.66 34.64 35.09 35.34 38.67 39.07 36.98 36.70 37.98 41.07 42.08 45.35 45.81 46.53 46.76 47.27 47.39 50.23 52.07 51.75 52.01 53.99 53.31 50.15 51.02 53.87 60.07 67.11 67.07 65.55 66.32 65.46 65.63 66.46 67.97 69.89 69.97 70.05 69.59 69.74 68.90 67.99 67.67 66.67 63.83 62.92 62.20 62.11 64.39
33.67 39.78 38.92 37.77 33.93 28.30 36.18 28.61 33.32 36.07 39.60 42.73 44.54 45.10 45.82 46.84 48.60 49.90 51.43 51.41 51.86 53.73 55.40 52.09 50.58 53.93 55.87 66.40 66.88 66.46 66.11 65.27 65.55 67.48 68.80 69.12 70.44 69.88 69.48 69.61 69.17 68.19 67.69 66.85 64.41 64.38 63.10 63.75 64.03
37.10 40.75 37.92 37.06 31.93 29.37 30.98 25.50 30.95 37.00 37.40 40.43 43.80 47.97 47.31 47.89 48.10 49.13 50.09 51.22 52.53 54.26 54.09 55.21 54.57 53.87 55.76 57.47 65.75 65.83 63.90 64.73 64.64 64.90 65.23 66.93 68.67 69.82 69.82 69.50 68.75 68.63 67.32 65.69 65.37 64.54 64.52 64.26 64.30
42.28 36.77 34.89 31.62 28.82 21.65 28.36 28.03 28.13 33.00 38.39 41.02 45.59 46.84 48.89 48.69 48.59 49.04 49.76 50.16 50.80 52.08 52.83 53.66 54.22 55.98 57.38 57.82 59.81 63.78 63.57 63.22 63.32 63.07 64.67 65.51 67.45 69.07 69.31 69.80 68.85 68.24 67.48 65.82 66.87 66.36 65.91 65.15 64.43
37.93 30.12 21.08 20.98 19.78 21.65 31.07 29.31 30.98 36.93 42.39 43.67 45.18 46.86 47.69 48.90 47.71 47.34 47.64 48.07 49.18 49.72 50.22 51.56 52.56 53.38 56.14 58.64 60.22 63.28 63.01 63.56 63.48 63.81 64.89 65.10 65.75 68.22 68.65 68.78 68.44 68.69 67.97 67.52 67.04 66.19 65.54 65.37 64.67
33.18 31.01 22.28 16.74 18.66 23.52 32.08 26.82 31.87 40.78 43.49 44.88 46.34 46.50 45.29 45.60 45.46 46.23 46.62 47.00 47.76 48.90 49.36 49.80 50.82 52.90 55.69 56.79 59.13 61.68 63.72 64.08 63.28 64.02 64.89 65.19 66.00 67.52 67.74 68.28 69.18 69.07 68.85 67.99 68.01 66.65 65.75 65.63 62.38
33.81 26.78 32.92 23.99 26.23 26.55 27.56 32.32 37.27 41.18 42.35 43.84 43.68 43.79 42.01 43.08 43.72 43.30 44.77 46.11 46.69 47.30 48.23 49.05 49.80 51.98 55.24 56.90 58.46 59.41 60.70 63.05 64.43 63.47 63.62 63.09 64.79 66.54 67.63 68.67 68.82 67.90 65.57 66.19 67.31 66.04 61.34 59.32 58.12
36.12 37.72 25.76 26.33 20.56 22.70 25.45 27.48 29.43 34.75 37.70 39.91 41.20 40.25 40.40 41.31 41.81 42.92 43.86 44.65 45.90 46.39 47.27 48.89 49.33 50.47 53.78 56.49 58.83 61.22 61.92 64.61 66.31 63.53 63.10 63.34 64.24 64.53 66.88 67.50 67.70 66.44 66.94 66.11 66.17 63.53 58.82 57.02 56.24
33.36 30.13 32.38 34.06 33.78 25.16 23.17 25.37 33.64 37.63 40.05 38.03 40.27 40.25 39.74 39.83 40.26 41.47 42.95 45.33 45.51 46.02 46.04 47.12 48.81 49.71 52.20 56.26 56.83 58.77 62.00 62.88 64.01 63.55 63.01 62.71 62.47 64.24 67.02 67.38 66.17 65.90 66.05 64.71 60.29 58.72 56.98 54.96 53.86
36.83 33.80 32.75 23.28 25.04 26.96 29.97 29.02 40.74 39.00 39.55 41.19 41.27 41.01 40.39 40.39 40.13 42.10 44.36 44.38 44.39 44.65 45.47 46.03 48.31 48.98 51.13 55.41 56.56 58.52 59.18 58.48 59.11 60.70 61.24 62.64 61.76 64.08 66.33 66.15 65.78 63.85 64.86 60.92 58.31 56.78 55.94 53.73 52.33
MSLP
1009.29 1008.96 1008.95 1009.02 1010.13 1010.29 1010.11 1008.79 1007.53 1006.60 1005.50 1004.60 1004.39 1004.75 1005.80 1005.99 1006.16 1006.52 1005.80 1005.74 1006.01 1006.34 1006.80 1007.35 1007.67 1007.83 1008.01 1008.38 1008.79 1009.04 1009.29 1009.56 1009.84 1010.12 1010.47 1010.68 1010.89 1011.17 1011.47 1011.86 1012.17 1012.42 1012.64 1012.76 1012.85 1012.95 1013.04 1013.13 1013.24
1009.31 1009.05 1009.21 1009.86 1010.88 1011.12 1010.24 1009.46 1008.21 1006.76 1006.04 1005.32 1004.45 1004.91 1005.43 1006.17 1005.92 1005.93 1005.95 1005.95 1006.14 1006.44 1006.72 1007.27 1007.78 1008.14 1008.39 1008.51 1008.75 1009.02 1009.46 1009.77 1010.08 1010.37 1010.68 1010.98 1011.07 1011.26 1011.58 1011.87 1012.16 1012.39 1012.59 1012.85 1013.09 1013.15 1013.26 1013.42 1013.53
1009.32 1009.38 1010.05 1011.10 1011.78 1011.72 1010.89 1009.71 1008.34 1006.34 1006.20 1005.81 1005.24 1005.20 1005.58 1006.03 1005.98 1006.14 1006.03 1006.28 1006.68 1007.01 1007.14 1007.47 1007.80 1008.18 1008.58 1008.90 1009.01 1009.14 1009.41 1009.75 1010.09 1010.46 1010.82 1011.19 1011.38 1011.50 1011.69 1011.89 1012.12 1012.41 1012.63 1012.85 1013.04 1013.16 1013.26 1013.45 1013.55
1009.59 1010.15 1011.39 1011.50 1012.00 1011.43 1010.86 1010.00 1008.58 1006.98 1005.98 1005.93 1005.59 1005.94 1005.98 1006.08 1005.87 1005.92 1006.33 1006.65 1006.98 1007.52 1007.62 1007.80 1007.88 1008.15 1008.53 1008.99 1009.35 1009.47 1009.59 1009.84 1010.18 1010.45 1010.69 1011.20 1011.48 1011.66 1011.86 1012.03 1012.24 1012.40 1012.64 1012.82 1013.07 1013.26 1013.28 1013.42 1013.59
1010.20 1011.25 1012.30 1012.42 1012.12 1011.29 1010.65 1009.89 1008.93 1008.10 1007.21 1006.68 1006.10 1006.86 1006.74 1006.64 1006.31 1006.40 1006.77 1007.03 1007.30 1007.85 1007.92 1008.16 1008.34 1008.59 1008.83 1008.98 1009.34 1009.57 1009.80 1010.08 1010.28 1010.47 1010.69 1011.07 1011.42 1011.62 1011.83 1012.05 1012.33 1012.53 1012.76 1012.97 1013.10 1013.24 1013.41 1013.55 1013.70
1011.16 1012.08 1012.91 1012.95 1012.39 1011.22 1010.43 1010.16 1009.23 1008.76 1008.01 1007.34 1007.05 1007.23 1007.54 1007.17 1006.90 1006.84 1006.99 1007.40 1007.70 1007.72 1007.86 1008.06 1008.37 1008.77 1009.07 1009.30 1009.28 1009.47 1009.89 1010.19 1010.45 1010.68 1010.80 1011.08 1011.35 1011.65 1012.01 1012.19 1012.35 1012.58 1012.76 1012.87 1013.04 1013.26 1013.39 1013.60 1013.81
1011.45 1012.56 1013.06 1012.83 1012.31 1011.25 1010.64 1010.08 1009.79 1009.40 1008.80 1008.04 1007.65 1007.74 1007.76 1007.44 1007.47 1007.19 1007.14 1007.17 1007.56 1007.90 1008.08 1008.14 1008.33 1008.61 1008.85 1009.21 1009.42 1009.52 1009.77 1010.15 1010.56 1010.78 1011.03 1011.23 1011.39 1011.65 1011.95 1012.16 1012.28 1012.59 1012.85 1013.00 1013.10 1013.31 1013.46 1013.55 1013.81
1011.37 1012.64 1013.07 1012.61 1012.12 1011.21 1010.54 1009.93 1009.65 1009.34 1009.04 1008.26 1007.89 1008.01 1008.09 1007.86 1007.58 1007.98 1008.15 1008.23 1008.06 1007.98 1007.93 1008.03 1008.24 1008.44 1008.82 1009.11 1009.48 1009.80 1009.86 1010.11 1010.53 1010.84 1011.14 1011.37 1011.56 1011.75 1011.98 1012.16 1012.31 1012.46 1012.68 1012.97 1013.18 1013.34 1013.46 1013.56 1013.77
1011.16 1012.69 1013.37 1012.33 1011.65 1011.15 1010.37 1010.04 1009.49 1009.10 1008.97 1008.78 1008.45 1008.17 1007.92 1007.82 1007.79 1008.20 1008.53 1008.65 1008.79 1008.69 1008.51 1008.45 1008.42 1008.43 1008.73 1009.05 1009.27 1009.66 1009.99 1010.21 1010.48 1010.88 1011.22 1011.44 1011.70 1011.87 1012.05 1012.21 1012.28 1012.48 1012.67 1012.81 1012.97 1013.16 1013.29 1013.43 1013.81
1011.82 1012.85 1012.67 1011.86 1011.36 1011.29 1010.85 1010.39 1009.72 1009.51 1009.26 1008.81 1008.50 1008.28 1007.99 1008.04 1008.19 1008.35 1008.58 1008.78 1008.94 1008.93 1008.85 1008.68 1008.58 1008.57 1008.50 1008.74 1009.14 1009.45 1009.84 1010.28 1010.50 1010.79 1011.09 1011.37 1011.69 1011.86 1011.93 1012.14 1012.28 1012.47 1012.67 1012.80 1012.93 1013.07 1013.15 1013.35 1013.90
1012.13 1012.48 1012.19 1011.61 1011.23 1011.21 1010.82 1010.47 1009.95 1009.68 1009.35 1008.80 1008.81 1008.43 1008.15 1007.94 1008.06 1008.27 1008.37 1008.27 1008.27 1008.28 1008.58 1008.63 1008.58 1008.58 1008.75 1008.86 1008.97 1009.25 1009.63 1009.85 1010.42 1010.75 1010.96 1011.24 1011.65 1011.83 1011.90 1012.11 1012.25 1012.46 1012.57 1012.82 1012.93 1013.13 1013.20 1013.28 1013.76
1012.31 1012.12 1012.19 1011.78 1011.29 1011.11 1010.86 1010.36 1010.13 1009.91 1009.53 1008.74 1008.63 1008.61 1008.39 1008.20 1008.05 1007.92 1007.87 1008.22 1007.99 1007.92 1007.79 1008.08 1008.31 1008.42 1008.56 1008.59 1009.16 1009.28 1009.51 1009.46 1009.88 1010.26 1010.63 1011.02 1011.43 1011.67 1011.70 1011.94 1012.09 1012.31 1012.41 1012.73 1012.95 1013.13 1013.13 1013.25 1013.47
1012.56 1012.46 1012.02 1011.53 1011.23 1010.91 1010.67 1010.41 1010.30 1009.89 1009.66 1009.20 1008.93 1008.59 1008.63 1008.65 1008.55 1007.95 1007.80 1007.55 1007.63 1007.66 1007.24 1007.29 1007.60 1007.86 1008.06 1008.41 1008.61 1008.92 1009.25 1009.53 1009.54 1009.81 1010.21 1010.61 1011.15 1011.32 1011.45 1011.70 1011.88 1012.07 1012.21 1012.46 1012.82 1013.02 1013.11 1013.27 1013.12
1012.66 1012.46 1012.05 1011.46 1011.26 1010.73 1010.49 1010.43 1010.23 1010.00 1009.88 1009.53 1009.31 1009.06 1008.76 1008.71 1008.52 1008.13 1007.59 1007.33 1007.14 1006.92 1006.80 1006.70 1006.91 1007.14 1007.54 1007.79 1008.15 1008.30 1008.65 1009.05 1009.27 1009.49 1009.64 1010.11 1010.55 1010.90 1011.21 1011.64 1011.77 1011.82 1011.90 1012.14 1012.50 1012.89 1013.12 1013.20 1013.18
1012.87 1012.87 1011.97 1011.64 1011.30 1010.80 1010.60 1010.59 1010.63 1010.34 1010.16 1009.93 1009.67 1009.37 1008.98 1008.58 1008.19 1008.08 1007.54 1007.20 1006.74 1006.57 1006.38 1006.35 1006.24 1006.67 1006.93 1007.11 1007.40 1007.88 1007.97 1008.32 1009.05 1009.15 1009.21 1009.51 1010.08 1010.47 1010.89 1011.21 1011.53 1011.50 1011.67 1011.98 1012.40 1012.71 1012.95 1013.24 1013.29
1013.53 1013.64 1013.39 1011.99 1011.61 1010.93 1010.97 1010.97 1010.67 1010.28 1010.30 1010.37 1009.94 1009.58 1009.25 1008.75 1008.27 1007.79 1007.32 1006.87 1006.08 1006.14 1006.15 1006.00 1005.61 1005.87 1006.41 1006.81 1007.08 1007.23 1007.51 1007.83 1008.11 1008.42 1008.91 1009.02 1009.31 1009.84 1010.55 1010.89 1011.04 1011.09 1011.50 1011.84 1012.31 1012.71 1013.03 1013.16 1013.35
1014.66 1014.69 1014.21 1013.20 1011.96 1011.75 1011.70 1011.29 1010.66 1010.50 1010.44 1010.22 1009.93 1009.56 1009.47 1008.87 1008.29 1007.51 1007.09 1006.57 1006.15 1005.58 1005.36 1005.43 1005.61 1005.19 1005.41 1005.98 1006.31 1006.79 1007.05 1007.29 1007.51 1007.75 1008.13 1008.67 1009.04 1009.34 1009.77 1010.24 1010.50 1010.68 1011.34 1011.75 1012.11 1012.56 1012.79 1013.10 1013.34
1015.01 1014.99 1014.40 1013.79 1012.66 1012.16 1011.86 1011.26 1011.08 1010.55 1010.33 1010.15 1009.75 1009.43 1009.54 1009.18 1008.14 1007.42 1006.57 1005.68 1005.42 1005.17 1004.88 1004.91 1004.87 1005.08 1004.70 1005.07 1006.00 1006.66 1007.03 1007.51 1007.65 1007.62 1007.71 1007.95 1008.49 1008.96 1009.43 1009.68 1009.89 1010.28 1010.89 1011.37 1011.85 1012.24 1012.57 1012.82 1013.08
1014.42 1014.63 1014.57 1013.98 1012.91 1012.74 1012.34 1011.50 1011.39 1010.97 1010.46 1010.04 1009.96 1009.88 1009.53 1009.15 1008.25 1007.26 1006.23 1005.52 1005.02 1004.55 1004.69 1004.30 1004.53 1004.24 1004.91 1005.02 1005.63 1006.28 1006.63 1006.74 1007.03 1007.39 1007.29 1007.34 1007.65 1008.10 1008.70 1009.17 1009.55 1009.96 1010.41 1010.75 1011.20 1011.83 1012.49 1012.85 1012.87
1014.26 1014.43 1014.44 1013.81 1013.32 1013.30 1012.34 1011.05 1011.00 1010.76 1010.26 1009.95 1010.26 1010.24 1009.89 1009.24 1008.21 1007.39 1006.68 1005.82 1005.11 1004.73 1003.94 1003.72 1003.70 1003.82 1003.83 1004.17 1004.35 1004.71 1005.09 1005.58 1005.73 1006.12 1006.63 1006.73 1007.09 1007.36 1007.90 1008.50 1009.00 1009.51 1009.92 1010.39 1010.80 1011.34 1012.13 1012.42 1012.55
1014.32 1014.71 1014.88 1014.77 1014.05 1013.54 1012.95 1010.98 1011.05 1010.54 1010.29 1010.22 1010.41 1010.45 1010.22 1009.81 1009.18 1008.13 1007.42 1006.51 1005.50 1004.79 1004.22 1003.53 1003.15 1003.15 1003.07 1003.24 1003.77 1004.41 1004.93 1005.55 1006.13 1006.41 1006.43 1006.53 1006.72 1006.91 1007.35 1007.85 1008.38 1008.86 1009.26 1009.74 1010.24 1010.60 1011.35 1012.10 1012.34
1014.46 1014.60 1015.01 1015.26 1015.39 1014.74 1013.77 1011.80 1011.73 1011.41 1010.98 1010.68 1010.55 1010.50 1010.24 1010.04 1009.44 1008.97 1008.28 1007.07 1006.01 1005.00 1004.35 1003.47 1003.12 1003.06 1002.95 1002.58 1002.93 1003.43 1003.79 1004.59 1004.76 1004.88 1005.05 1005.39 1005.71 1006.21 1006.52 1007.26 1007.62 1008.12 1008.63 1008.98 1009.45 1009.86 1010.55 1011.18 1011.87
1014.58 1014.96 1015.57 1015.62 1015.86 1015.89 1014.95 1014.91 1012.63 1012.03 1011.33 1010.87 1010.39 1010.07 1010.35 1009.98 1009.86 1009.17 1008.45 1007.34 1006.17 1005.06 1004.71 1004.19 1003.54 1003.37 1003.40 1003.01 1002.45 1002.63 1003.24 1003.53 1003.64 1004.10 1004.58 1004.88 1005.33 1005.66 1005.98 1006.46 1006.99 1007.25 1007.86 1008.36 1008.75 1009.20 1009.83 1010.32 1010.92
1014.82 1015.60 1016.04 1016.99 1017.41 1017.45 1016.23 1015.87 1013.70 1012.47 1011.59 1010.84 1010.32 1009.84 1010.02 1010.29 1010.23 1009.32 1008.47 1007.18 1006.23 1005.32 1004.68 1004.37 1003.98 1003.56 1003.21 1003.13 1003.03 1003.08 1002.43 1002.96 1003.60 1004.01 1004.36 1004.52 1004.79 1005.02 1005.35 1005.68 1006.35 1006.90 1007.25 1007.86 1008.26 1008.24 1008.94 1009.60 1010.06
1015.63 1017.30 1018.39 1019.00 1019.01 1018.36 1016.92 1016.21 1013.66 1012.00 1011.12 1010.72 1010.19 1009.88 1010.03 1010.27 1010.24 1009.52 1008.51 1007.65 1006.72 1005.91 1005.47 1005.01 1004.62 1004.05 1003.39 1002.99 1002.69 1002.57 1002.93 1002.16 1002.51 1003.08 1003.62 1004.10 1004.44 1004.81 1005.00 1005.35 1005.64 1006.39 1007.01 1007.62 1007.70 1007.98 1008.53 1009.13 1009.83
1016.45 1017.83 1019.81 1020.42 1020.22 1018.85 1017.51 1015.66 1012.89 1011.41 1010.90 1010.38 1010.15 1010.05 1010.23 1010.42 1010.15 1009.75 1009.17 1008.37 1007.43 1006.65 1006.06 1005.45 1004.88 1004.28 1003.66 1002.83 1002.65 1002.39 1002.11 1003.02 1001.91 1002.31 1002.94 1003.56 1003.87 1003.97 1004.31 1004.76 1005.00 1005.64 1006.30 1005.67 1005.09 1007.62 1008.34 1008.89 1009.44
1016.58 1017.92 1018.90 1020.06 1019.97 1019.31 1017.05 1014.62 1012.56 1011.36 1011.12 1010.59 1010.32 1010.56 1010.71 1010.87 1010.53 1009.99 1009.01 1008.35 1007.70 1007.04 1006.44 1005.82 1005.19 1004.44 1003.68 1002.88 1002.12 1001.99 1001.83 1002.37 1003.02 1002.25 1002.75 1003.39 1003.46 1003.54 1003.71 1004.11 1004.40 1004.94 1004.80 1004.62 1005.95 1008.22 1009.02 1010.23 1010.45
1016.39 1017.55 1019.01 1020.11 1020.17 1018.68 1016.45 1014.67 1012.53 1011.58 1011.22 1010.80 1010.67 1010.73 1010.90 1010.83 1010.43 1009.80 1009.19 1008.44 1007.74 1007.26 1006.45 1005.76 1005.29 1004.82 1003.87 1003.09 1001.99 1001.66 1001.44 1001.48 1002.03 1002.54 1002.75 1003.11 1003.13 1003.27 1003.47 1003.67 1004.14 1004.66 1005.56 1005.95 1006.01 1007.55 1009.24 1010.25 1011.29
1016.81 1017.47 1018.43 1019.15 1019.44 1018.60 1016.68 1013.60 1011.92 1011.27 1010.75 1010.84 1010.69 1010.62 1011.20 1011.07 1010.58 1009.77 1008.99 1008.29 1007.91 1007.11 1006.59 1005.95 1005.29 1004.73 1004.05 1003.26 1002.14 1001.70 1001.48 1001.23 1001.05 1002.19 1002.13 1002.47 1002.70 1002.78 1002.88 1003.22 1003.48 1004.29 1004.99 1005.56 1006.55 1008.31 1008.95 1009.53 1011.41
1016.10 1016.76 1017.52 1018.62 1018.52 1017.59 1016.08 1012.40 1011.12 1010.69 1010.65 1010.58 1010.60 1010.74 1011.00 1010.91 1010.17 1009.52 1008.84 1008.34 1007.94 1007.22 1006.45 1005.85 1005.15 1004.62 1003.89 1003.08 1002.54 1001.59 1001.74 1001.42 1001.68 1001.75 1001.68 1001.87 1002.36 1002.57 1002.24 1002.81 1003.18 1003.77 1004.95 1006.24 1007.17 1008.19 1009.34 1009.81 1010.73
Wind_Speed
7 7 0 4 5 4 3 6 4 9 7 4 3 8 8 3 1 3 4 4 9 11 11 11 13 14 16 17 16 16 16 15 15 15 14 15 16 16 16 15 13 12 11 10 10 9 10 11 12
4 3 4 3 6 4 6 6 8 5 4 6 7 4 7 3 3 1 2 2 9 11 10 10 13 13 15 17 16 17 16 15 15 15 14 13 15 16 15 15 14 12 12 10 9 8 8 9 10
2 3 5 5 4 3 2 8 16 11 6 5 3 4 4 2 2 3 2 8 8 7 7 10 15 14 15 14 16 16 17 17 17 16 15 13 13 14 14 14 13 12 11 10 9 8 7 8 9
3 5 5 5 2 2 3 9 10 9 6 6 1 6 4 6 2 3 9 10 9 5 5 10 14 15 15 15 14 15 16 17 17 17 17 15 14 13 13 13 12 11 11 9 7 6 6 6 8
5 4 5 4 2 2 1 6 8 9 4 7 2 4 4 6 5 6 8 9 9 6 5 7 11 12 14 17 16 15 15 15 16 17 18 17 15 13 13 13 11 10 9 8 6 5 4 4 6
5 4 5 1 3 5 4 5 7 8 8 8 9 4 2 5 1 4 8 7 8 11 9 9 13 12 12 13 15 15 14 14 14 15 16 16 15 14 12 11 10 9 8 8 6 5 4 3 4
7 5 3 1 4 3 4 4 6 5 8 9 4 3 2 5 4 3 6 8 8 7 7 6 8 11 14 12 12 14 14 13 13 13 13 14 14 13 13 12 11 9 7 6 6 5 4 4 2
6 6 3 2 1 3 3 5 3 3 2 7 3 4 3 3 5 6 6 5 3 5 7 9 8 8 7 8 12 12 13 14 13 12 12 12 12 12 12 11 11 11 10 8 6 5 5 5 2
4 7 1 3 4 6 4 5 2 3 3 2 2 0 2 4 5 5 3 4 3 2 4 5 9 10 8 7 9 11 14 13 13 12 12 9 5 7 9 9 11 11 10 9 8 7 7 6 2
6 4 6 4 2 3 5 3 7 3 3 4 3 3 3 3 1 4 5 6 4 5 4 4 6 10 10 7 7 7 7 5 6 7 7 6 7 7 7 9 11 11 10 9 8 7 7 5 2
1 4 4 2 1 2 4 4 3 2 10 8 7 8 7 3 4 3 6 8 10 6 4 7 6 7 7 5 5 5 5 5 5 7 8 9 7 7 5 3 4 4 8 3 4 4 3 4 2
2 2 3 6 5 6 6 5 4 4 9 9 8 6 6 10 8 8 8 8 6 8 12 7 8 7 7 4 5 4 6 6 7 10 12 8 6 7 7 5 5 4 3 4 4 3 4 5 3
3 4 8 9 8 6 3 6 3 4 9 10 11 8 8 9 10 10 8 8 6 8 9 12 12 11 10 7 6 6 7 7 9 9 10 9 7 7 5 5 5 5 4 4 4 4 4 4 5
3 5 8 7 7 4 3 5 3 5 9 10 10 11 9 7 8 8 9 10 8 9 9 10 12 12 10 11 10 9 7 8 8 10 11 13 7 6 6 5 6 5 4 4 4 5 4 4 4
3 7 9 5 3 4 1 9 7 5 6 9 10 9 10 10 9 9 9 10 9 7 8 9 14 12 12 14 12 9 9 9 8 8 11 13 8 7 8 6 5 5 4 5 4 3 2 3 2
6 4 5 7 7 3 7 9 5 6 7 9 10 9 10 11 10 9 10 10 11 8 9 9 11 13 13 11 10 9 9 9 9 9 8 12 12 10 7 6 6 6 4 5 4 3 3 4 2
6 4 5 9 4 4 2 9 7 6 6 10 8 8 9 10 10 11 10 11 12 12 10 10 9 13 15 13 10 10 10 9 8 8 8 10 11 11 10 8 7 6 5 5 4 2 4 3 2
7 4 5 7 7 6 7 12 3 8 7 9 10 8 7 9 14 12 13 12 9 11 10 9 8 10 14 12 7 3 3 2 3 5 8 10 10 12 10 8 9 6 5 4 4 4 2 3 3
5 4 7 5 10 3 8 12 4 9 8 10 8 10 11 10 11 15 12 9 10 9 9 9 8 12 6 6 8 6 8 8 7 7 11 10 10 12 12 10 8 7 8 8 8 4 5 3 4
4 3 5 5 5 5 10 19 7 6 7 7 3 8 9 11 14 16 17 9 7 9 8 9 11 10 11 9 8 4 8 7 11 8 8 10 10 11 12 12 10 9 8 7 6 6 3 3 5
3 1 5 8 5 6 6 18 6 5 2 4 4 6 7 8 12 13 16 12 9 11 13 9 10 12 12 14 5 3 5 3 3 3 4 7 9 10 11 12 10 10 9 9 7 8 8 5 4
4 2 5 10 6 6 3 16 3 1 4 3 6 7 8 8 10 9 12 13 12 11 11 13 7 8 10 12 11 13 10 9 6 8 10 9 12 12 13 11 11 10 9 10 9 8 5 5 5
6 5 6 9 5 3 5 3 7 3 2 5 7 4 6 7 9 11 10 10 12 13 12 10 9 6 7 6 12 12 9 8 5 3 6 6 7 10 12 13 11 10 7 7 10 8 7 4 5
6 5 6 5 3 2 3 4 7 5 4 5 4 4 5 8 9 9 9 12 13 12 16 15 10 7 7 6 8 10 14 10 6 4 5 5 5 7 10 12 10 7 6 6 9 11 10 7 5
10 7 6 8 6 6 3 4 11 7 8 6 4 4 4 1 8 10 13 15 17 18 15 15 16 11 8 7 8 10 11 14 13 10 7 5 4 4 9 11 10 8 7 4 3 4 6 7 6
2 6 6 6 3 6 5 7 8 8 4 6 5 1 3 5 7 10 12 12 14 16 18 17 17 18 10 4 8 7 6 8 7 7 5 5 5 6 9 11 10 11 6 3 3 2 2 4 5
3 1 3 1 2 4 5 7 9 6 9 7 7 4 5 5 7 8 10 10 14 15 17 15 15 16 14 11 5 6 5 2 6 3 5 4 4 5 8 12 13 12 10 9 8 3 5 6 7
3 4 1 2 4 5 5 6 9 7 9 9 7 7 6 6 9 10 10 12 14 16 15 15 10 11 15 9 6 5 6 8 6 5 6 6 6 5 5 10 14 14 15 13 10 9 11 12 9
2 2 1 3 4 3 5 7 6 11 13 7 8 7 6 9 9 9 12 18 18 17 15 15 12 9 13 8 6 5 4 5 7 6 7 6 4 6 9 10 11 12 9 11 13 13 16 18 15
7 8 6 6 6 6 6 15 12 9 4 5 10 6 7 8 8 10 17 18 17 19 17 14 12 8 10 8 7 4 6 2 2 4 3 5 4 5 9 10 9 9 12 14 18 18 16 17 17
Wind_Direction
326 307 204 40 60 59 282 273 322 343 354 297 82 122 137 53 3 201 347 199 125 138 145 150 149 144 136 133 130 124 126 127 127 127 131 136 138 137 134 131 128 128 137 141 139 133 127 119 116
326 330 37 76 80 61 283 310 327 273 308 286 68 53 61 64 63 123 349 79 148 144 142 147 152 147 144 140 139 134 134 133 131 133 137 141 140 137 133 131 132 138 144 145 140 134 127 115 109
302 30 76 84 103 139 309 328 307 283 274 284 77 69 97 113 96 135 63 126 123 130 143 158 154 150 149 147 146 143 142 142 141 140 139 141 138 135 136 138 138 141 147 147 149 144 131 118 109
33 12 33 80 117 225 13 313 321 306 30 36 82 57 39 318 36 153 136 133 127 114 124 162 155 153 154 154 153 149 147 148 148 146 144 146 145 142 140 138 142 149 155 155 151 147 135 120 108
35 55 61 73 296 281 276 310 340 359 52 0 10 19 50 10 50 99 124 136 134 123 133 151 157 159 161 160 160 156 154 157 156 154 152 153 152 150 149 149 149 150 152 152 164 155 149 136 114
42 96 61 76 318 288 308 1 351 9 351 2 42 59 348 309 7 137 134 138 156 158 156 158 162 165 169 171 164 160 162 164 165 164 160 160 159 156 156 154 153 157 158 167 177 175 183 176 124
108 77 154 140 330 11 324 338 24 340 2 347 336 80 306 342 353 140 151 147 152 151 150 159 166 173 172 176 174 166 166 169 173 171 169 166 163 161 162 162 160 161 166 177 186 191 206 218 159
101 87 45 359 49 290 296 343 171 33 321 298 352 14 19 312 19 39 16 28 96 152 163 165 168 170 168 170 178 181 173 173 176 177 175 172 169 166 170 168 169 171 177 187 201 202 222 236 202
112 61 38 308 29 274 296 353 266 305 3 329 349 175 234 323 57 110 45 9 5 208 193 181 176 175 171 173 181 183 186 182 180 182 182 170 169 173 181 180 181 183 189 192 197 206 224 235 226
75 95 216 224 270 329 322 326 313 13 310 290 321 254 238 184 108 138 200 204 232 247 248 205 189 187 177 180 179 173 181 183 182 178 181 172 186 187 181 187 190 191 197 201 205 214 230 247 143
331 137 210 281 314 17 288 291 304 339 320 281 270 289 300 267 305 247 185 209 210 202 205 211 194 185 179 187 175 176 181 176 181 183 186 192 194 199 186 176 191 187 205 210 208 227 241 244 170
24 10 82 293 333 341 316 292 282 203 251 271 274 266 299 302 294 281 280 202 226 199 217 191 189 181 183 165 170 188 192 186 188 199 199 194 195 201 193 192 195 188 192 203 211 213 238 254 237
53 321 323 308 317 300 253 323 273 263 309 325 316 319 287 294 290 292 270 283 212 227 224 195 186 190 188 181 175 179 198 202 200 196 199 199 193 195 192 199 192 196 187 197 207 216 230 245 268
294 284 284 292 296 265 28 307 42 309 343 357 4 344 333 321 295 302 297 267 248 231 220 204 193 194 181 185 188 187 179 199 201 203 200 202 192 189 187 197 205 199 194 201 197 209 222 236 253
306 327 336 357 349 299 97 332 320 306 344 344 329 313 306 298 301 281 274 278 259 248 249 197 200 195 186 190 188 188 192 189 203 209 196 196 189 189 193 195 204 210 198 194 197 216 227 247 241
1 47 5 293 332 315 86 276 263 310 340 306 298 299 297 289 277 277 270 269 275 254 222 245 202 191 193 195 193 193 191 193 198 201 203 198 192 187 191 198 206 205 186 190 187 178 224 247 223
2 259 277 313 284 313 177 262 254 286 284 293 295 293 295 300 302 292 264 249 260 265 236 224 226 194 190 200 193 195 200 194 195 193 197 204 204 197 193 198 208 186 190 195 185 177 177 212 219
275 265 256 255 282 215 256 260 262 293 310 293 300 319 319 309 300 289 288 289 254 248 250 233 199 236 195 189 190 181 164 221 217 203 197 196 201 201 202 205 203 185 183 189 164 174 183 189 193
253 228 247 267 261 281 239 269 264 252 292 300 323 331 325 310 295 304 297 289 298 270 251 229 219 214 198 182 177 182 194 193 188 207 213 194 194 199 198 213 204 197 202 200 192 159 178 218 158
282 285 313 303 355 317 291 284 266 214 231 256 349 328 323 317 327 326 334 324 334 287 272 249 221 224 192 200 193 168 182 198 200 195 199 194 192 198 202 208 208 196 201 205 174 165 161 192 190
329 124 292 269 302 262 284 279 283 265 346 338 339 288 300 305 314 325 326 325 332 351 338 276 232 219 208 202 151 95 85 65 121 199 195 202 201 202 210 207 205 203 202 205 189 177 172 168 209
316 283 319 306 327 278 158 289 217 329 319 299 314 325 329 325 325 329 322 333 332 348 350 342 281 233 221 199 185 190 187 188 194 197 207 205 200 202 198 214 204 196 201 203 191 181 178 151 154
238 330 262 286 253 335 286 1 265 351 317 306 300 315 321 341 312 315 322 322 341 356 356 358 349 312 285 234 215 189 192 200 194 174 184 184 205 210 203 203 212 194 184 197 186 174 182 178 141
265 341 350 43 85 7 262 101 269 276 233 290 294 67 12 334 308 321 320 348 354 359 360 353 356 344 308 245 229 244 191 191 178 175 196 210 196 205 213 201 200 206 186 181 205 186 176 171 154
38 42 333 348 2 232 262 319 242 264 253 236 287 38 46 350 313 339 353 352 352 352 353 349 344 331 342 271 230 222 238 198 195 189 197 195 183 193 211 199 188 194 171 161 178 170 180 172 158
279 148 160 255 232 266 313 241 255 227 273 289 260 88 31 341 339 342 342 346 349 345 342 339 342 333 327 305 256 235 215 253 195 179 179 182 203 202 203 204 179 184 206 77 53 148 151 173 135
274 164 189 190 251 273 242 283 315 271 289 290 338 358 327 328 320 310 321 338 341 337 330 330 330 331 318 321 295 230 190 214 288 135 140 204 211 213 200 190 177 161 169 208 167 167 93 85 67
138 181 47 12 287 255 267 265 245 296 279 279 290 287 306 314 325 325 331 330 326 320 319 316 319 315 309 303 333 277 193 172 193 197 186 205 228 221 208 197 178 182 184 186 165 155 121 105 80
321 314 129 135 218 279 289 257 218 286 294 273 274 249 288 294 293 301 314 328 319 311 308 304 304 312 311 294 290 318 263 202 144 194 185 206 207 208 196 194 174 170 168 142 126 128 129 117 112
181 203 174 127 264 230 268 274 252 250 258 299 286 297 289 275 284 302 324 316 311 305 303 297 296 309 314 285 287 193 203 115 157 160 154 168 204 224 214 178 156 144 139 137 136 134 130 122 118